EW7070 Weather Reports


time (UTC)temp
C
wind
direction
speed
KPH
gust
KPH
rain 1hr
cm
rain 24hr
cm
rain mn
cm
humidity
%
barometer
mb
20260906025216 10 286 0.0 1.6 0.00 0.00 0.00 90 1021.9
20260906024944 10 286 0.0 3.2 0.00 0.00 0.00 90 1022.0
20260906024211 10 286 0.0 1.6 0.00 0.00 0.00 89 1021.8
20260906023933 10 286 1.6 3.2 0.00 0.00 0.00 90 1021.6
20260906023158 10 286 0.0 3.2 0.00 0.00 0.00 90 1021.7
20260906022630 10 141 0.0 0.0 0.00 0.00 0.00 90 1021.8
20260906022351 10 141 0.0 1.6 0.00 0.00 0.00 90 1021.6
20260906021617 10 141 0.0 1.6 0.00 0.00 0.00 91 1021.5
20260906021105 11 141 0.0 0.0 0.00 0.00 0.00 91 1021.5
20260906020604 11 141 0.0 0.0 0.00 0.00 0.00 90 1021.4
20260906020104 11 141 0.0 0.0 0.00 0.00 0.00 90 1021.4
20260906015536 11 141 0.0 0.0 0.00 0.00 0.00 89 1021.3
20260906015033 11 141 0.0 3.2 0.00 0.00 0.00 89 1021.0
20260906014522 11 141 0.0 3.2 0.00 0.00 0.00 88 1021.2
20260906014020 11 101 0.0 0.0 0.00 0.00 0.00 88 1021.2
20260906013506 11 101 0.0 3.2 0.00 0.00 0.00 88 1021.1
20260906013005 11 101 1.6 3.2 0.00 0.00 0.00 88 1021.0
20260906012453 11 177 1.6 3.2 0.00 0.00 0.00 89 1020.9
20260906011952 11 177 1.6 4.8 0.00 0.00 0.00 89 1020.9
20260906011452 11 147 1.6 9.7 0.00 0.00 0.00 89 1021.0
20260906010946 11 172 1.6 9.7 0.00 0.00 0.00 89 1020.9
20260906010715 11 299 0.0 1.6 0.00 0.00 0.00 89 1020.8
20260906005917 11 299 0.0 1.6 0.00 0.00 0.00 88 1020.7
20260906005410 11 299 1.6 3.2 0.00 0.00 0.00 88 1020.7
20260906004907 11 298 1.6 4.8 0.00 0.00 0.00 88 1020.5
20260906004343 11 245 1.6 4.8 0.00 0.00 0.00 88 1020.5
20260906004108 11 285 1.6 8.0 0.00 0.00 0.00 88 1020.4
20260906003311 11 149 1.6 8.0 0.00 0.00 0.00 88 1020.4
20260906002808 11 248 1.6 6.4 0.00 0.00 0.00 88 1020.3
20260906002240 11 245 3.2 6.4 0.00 0.00 0.00 89 1020.2
20260906001711 11 291 3.2 8.0 0.00 0.00 0.00 91 1020.0
20260906001209 11 212 3.2 6.4 0.00 0.00 0.00 91 1020.1
20260906000640 11 187 1.6 3.2 0.00 0.00 0.00 89 1019.7
20260906000403 11 272 0.0 1.6 0.00 0.00 0.00 88 1019.6
20260905235858 11 272 0.0 0.0 0.00 0.00 0.00 87 1019.5
20260905235125 11 272 0.0 0.0 0.00 0.00 0.00 87 1019.5
20260905234615 12 272 0.0 3.2 0.00 0.00 0.00 87 1019.4
20260905234112 12 272 0.0 3.2 0.00 0.00 0.00 87 1019.3
20260905233545 12 272 0.0 1.6 0.00 0.00 0.00 87 1019.3
20260905233039 12 271 0.0 0.0 0.00 0.00 0.00 85 1019.1
20260905232539 12 271 0.0 1.6 0.00 0.00 0.00 85 1019.1
20260905232013 12 272 0.0 3.2 0.00 0.00 0.00 85 1019.1
20260905231443 12 271 1.6 3.2 0.00 0.00 0.00 85 1018.9
20260905230914 12 272 1.6 3.2 0.00 0.00 0.00 85 1018.9
20260905230413 12 305 0.0 3.2 0.00 0.00 0.00 84 1018.9
20260905230119 13 305 0.0 3.2 0.00 0.00 0.00 83 1018.7
20260905225317 13 305 0.0 3.2 0.00 0.00 0.00 83 1018.8
20260905224808 13 305 0.0 3.2 0.00 0.00 0.00 81 1018.6
20260905224801 13 305 0.0 1.6 0.00 0.00 0.00 81 1018.7
20260905223801 13 305 0.0 3.2 0.00 0.00 0.00 82 1018.6
20260905223507 13 305 0.0 1.6 0.00 0.00 0.00 80 1018.6
20260905222711 13 305 1.6 4.8 0.00 0.00 0.00 80 1018.5
20260905222144 13 295 1.6 4.8 0.00 0.00 0.00 80 1018.4
20260905221612 13 289 1.6 3.2 0.00 0.00 0.00 80 1018.4
20260905221049 13 283 1.6 3.2 0.00 0.00 0.00 78 1018.3
20260905221023 14 303 1.6 3.2 0.00 0.00 0.00 79 1018.3
20260905220009 14 303 1.6 3.2 0.00 0.00 0.00 78 1018.2
20260905215511 14 303 3.2 4.8 0.00 0.00 0.00 78 1018.3
20260905215002 14 301 1.6 3.2 0.00 0.00 0.00 77 1018.2
20260905214501 14 297 3.2 4.8 0.00 0.00 0.00 77 1018.1
20260905214230 15 303 1.6 4.8 0.00 0.00 0.00 79 1018.1
20260905213447 15 303 1.6 3.2 0.00 0.00 0.00 78 1018.0
20260905212947 15 295 1.6 3.2 0.00 0.00 0.00 76 1018.1
20260905212423 15 295 1.6 3.2 0.00 0.00 0.00 76 1018.0
20260905211920 15 318 1.6 4.8 0.00 0.00 0.00 77 1017.7
20260905211411 15 299 1.6 3.2 0.00 0.00 0.00 75 1017.6
20260905210856 16 295 1.6 3.2 0.00 0.00 0.00 74 1017.6
20260905210324 16 295 1.6 3.2 0.00 0.00 0.00 72 1017.7
20260905205314 17 295 1.6 4.8 0.00 0.00 0.00 68 1017.5
20260905204755 17 295 1.6 4.8 0.00 0.00 0.00 64 1017.6
20260905204513 17 268 1.6 4.8 0.00 0.00 0.00 62 1017.5
20260905203721 17 293 1.6 3.2 0.00 0.00 0.00 65 1017.6
20260905203215 18 293 1.6 3.2 0.00 0.00 0.00 64 1017.5
20260905202946 18 274 0.0 3.2 0.00 0.00 0.00 63 1017.2
20260905202215 18 281 0.0 3.2 0.00 0.00 0.00 63 1017.2
20260905201652 18 235 1.6 3.2 0.00 0.00 0.00 58 1017.2
20260905201125 18 212 1.6 4.8 0.00 0.00 0.00 56 1017.1
20260905200602 18 257 3.2 6.4 0.00 0.00 0.00 57 1017.2
20260905200038 18 263 3.2 12.9 0.00 0.00 0.00 57 1016.9
20260905195518 18 253 4.8 12.9 0.00 0.00 0.00 56 1016.7
20260905194959 18 267 4.8 14.5 0.00 0.00 0.00 55 1016.9
20260905194455 18 260 4.8 14.5 0.00 0.00 0.00 56 1016.8
20260905193954 18 269 3.2 9.7 0.00 0.00 0.00 54 1016.8
20260905193452 18 249 3.2 8.0 0.00 0.00 0.00 58 1016.7
20260905192952 18 268 3.2 8.0 0.00 0.00 0.00 55 1016.6
20260905192725 18 274 4.8 9.7 0.00 0.00 0.00 56 1016.6
20260905192205 18 297 6.4 14.5 0.00 0.00 0.00 53 1016.5
20260905191406 18 273 6.4 14.5 0.00 0.00 0.00 54 1016.5
20260905190842 18 177 4.8 12.9 0.00 0.00 0.00 54 1016.4
20260905190316 18 278 4.8 9.7 0.00 0.00 0.00 56 1016.2
20260905185803 18 220 4.8 12.9 0.00 0.00 0.00 51 1016.2
20260905185306 19 255 4.8 14.5 0.00 0.00 0.00 53 1016.1
20260905184738 19 206 4.8 14.5 0.00 0.00 0.00 49 1016.1
20260905184227 20 201 6.4 16.1 0.00 0.00 0.00 50 1016.1
20260905183700 20 228 8.0 16.1 0.00 0.00 0.00 50 1016.0
20260905183147 20 326 8.0 20.9 0.00 0.00 0.00 52 1016.0
20260905182647 20 287 3.2 20.9 0.00 0.00 0.00 53 1016.0
20260905182118 20 47 3.2 14.5 0.00 0.00 0.00 58 1016.1
20260905181835 19 340 4.8 14.5 0.00 0.00 0.00 57 1016.1
20260905181105 19 321 6.4 14.5 0.00 0.00 0.00 60 1016.1
20260905180604 19 320 6.4 14.5 0.00 0.00 0.00 56 1016.1
20260905180038 20 271 4.8 14.5 0.00 0.00 0.00 55 1016.1
20260905175524 20 276 4.8 14.5 0.00 0.00 0.00 56 1016.1
20260905175025 20 280 3.2 16.1 0.00 0.00 0.00 60 1016.1
20260905174454 20 283 3.2 16.1 0.00 0.00 0.00 58 1016.1
20260905173930 19 177 4.8 14.5 0.00 0.00 0.00 58 1016.2
20260905173402 19 297 4.8 14.5 0.00 0.00 0.00 58 1016.1
20260905172835 19 310 4.8 11.3 0.00 0.00 0.00 61 1016.3
20260905172310 19 318 3.2 11.3 0.00 0.00 0.00 59 1016.3
20260905171758 19 293 4.8 9.7 0.00 0.00 0.00 64 1016.3
20260905171254 19 164 4.8 12.9 0.00 0.00 0.00 58 1016.3
20260905170755 19 237 4.8 12.9 0.00 0.00 0.00 61 1016.4
20260905170255 19 115 3.2 12.9 0.00 0.00 0.00 59 1016.5
20260905165753 18 251 3.2 12.9 0.00 0.00 0.00 62 1016.7
20260905165229 18 213 3.2 11.3 0.00 0.00 0.00 61 1016.7
20260905164729 18 311 4.8 14.5 0.00 0.00 0.00 63 1016.7
20260905164445 18 304 6.4 14.5 0.00 0.00 0.00 63 1017.0
20260905163712 18 235 6.4 12.9 0.00 0.00 0.00 63 1016.9
20260905163211 18 251 4.8 12.9 0.00 0.00 0.00 63 1016.8
20260905162912 18 322 4.8 16.1 0.00 0.00 0.00 63 1016.9
20260905162115 18 253 4.8 16.1 0.00 0.00 0.00 65 1016.7
20260905161553 18 272 4.8 12.9 0.00 0.00 0.00 64 1016.8
20260905161035 18 269 4.8 12.9 0.00 0.00 0.00 67 1016.9
20260905160530 18 140 3.2 12.9 0.00 0.00 0.00 67 1016.9
20260905160028 18 113 3.2 9.7 0.00 0.00 0.00 69 1017.0
20260905155731 17 280 6.4 14.5 0.00 0.00 0.00 67 1017.0
20260905155228 17 285 6.4 16.1 0.00 0.00 0.00 68 1017.1
20260905154429 17 255 4.8 16.1 0.00 0.00 0.00 68 1017.0
20260905153926 17 138 4.8 12.9 0.00 0.00 0.00 68 1017.1
20260905153415 17 258 4.8 12.9 0.00 0.00 0.00 66 1017.3
20260905152850 17 279 8.0 22.5 0.00 0.00 0.00 71 1017.4
20260905152323 17 264 6.4 22.5 0.00 0.00 0.00 71 1017.5
20260905151809 17 239 6.4 17.7 0.00 0.00 0.00 73 1017.6
20260905151305 17 122 4.8 17.7 0.00 0.00 0.00 70 1017.5
20260905150803 17 193 4.8 9.7 0.00 0.00 0.00 73 1017.7
20260905150248 17 145 4.8 9.7 0.00 0.00 0.00 71 1017.8
20260905145750 17 281 3.2 9.7 0.00 0.00 0.00 71 1017.8
20260905145225 17 232 4.8 12.9 0.00 0.00 0.00 71 1017.8
20260905144713 17 332 6.4 12.9 0.00 0.00 0.00 74 1017.9
20260905144211 17 293 4.8 12.9 0.00 0.00 0.00 75 1018.0
20260905143658 17 269 4.8 12.9 0.00 0.00 0.00 74 1018.0
20260905143157 17 43 3.2 4.8 0.00 0.00 0.00 79 1018.0
20260905142632 16 47 3.2 8.0 0.00 0.00 0.00 77 1018.0
20260905142133 16 232 3.2 8.0 0.00 0.00 0.00 76 1018.0
20260905141632 16 203 3.2 8.0 0.00 0.00 0.00 77 1018.2
20260905141402 16 296 3.2 9.7 0.00 0.00 0.00 77 1018.2
20260905140630 16 280 3.2 9.7 0.00 0.00 0.00 75 1018.2
20260905140128 16 280 3.2 8.0 0.00 0.00 0.00 77 1018.3
20260905135601 17 227 3.2 8.0 0.00 0.00 0.00 77 1018.4
20260905135056 17 127 3.2 6.4 0.00 0.00 0.00 78 1018.4
20260905134527 16 107 1.6 6.4 0.00 0.00 0.00 81 1018.4
20260905134025 16 150 1.6 8.0 0.00 0.00 0.00 80 1018.4
20260905133518 16 102 1.6 8.0 0.00 0.00 0.00 82 1018.5
20260905132950 15 6 0.0 3.2 0.00 0.00 0.00 84 1018.5
20260905132422 15 6 1.6 3.2 0.00 0.00 0.00 85 1018.5
20260905131922 15 310 1.6 11.3 0.00 0.00 0.00 86 1018.5
20260905131422 15 221 1.6 11.3 0.00 0.00 0.00 87 1018.5
20260905130923 15 249 0.0 6.4 0.00 0.00 0.00 89 1018.4
20260905130420 14 210 0.0 4.8 0.00 0.00 0.00 91 1018.6
20260905125920 14 267 1.6 6.4 0.00 0.00 0.00 92 1018.5
20260905125408 14 114 1.6 6.4 0.00 0.00 0.00 94 1018.4
20260905125138 13 212 1.6 6.4 0.00 0.00 0.00 94 1018.5
20260905124408 13 217 1.6 6.4 0.00 0.00 0.00 95 1018.5
20260905123853 13 125 0.0 4.8 0.00 0.00 0.00 95 1018.4
20260905123352 13 219 0.0 4.8 0.00 0.00 0.00 96 1018.5
20260905123124 13 220 1.6 4.8 0.00 0.00 0.00 96 1018.6
20260905122325 12 279 1.6 4.8 0.00 0.00 0.00 97 1018.4
20260905121822 12 267 1.6 4.8 0.00 0.00 0.00 97 1018.5
20260905121319 12 295 1.6 6.4 0.00 0.00 0.00 98 1018.4
20260905120800 12 332 1.6 6.4 0.00 0.00 0.00 98 1018.5
20260905120234 12 311 1.6 6.4 0.00 0.00 0.00 98 1018.6
20260905115708 12 304 1.6 4.8 0.00 0.00 0.00 98 1018.4
20260905115140 12 310 1.6 3.2 0.00 0.00 0.00 98 1018.4
20260905114845 12 345 1.6 4.8 0.00 0.00 0.00 98 1018.2
20260905114109 12 343 1.6 4.8 0.00 0.00 0.00 98 1018.1
20260905113606 12 336 1.6 4.8 0.00 0.00 0.00 98 1018.3
20260905113103 12 322 1.6 6.4 0.00 0.00 0.00 98 1018.1
20260905112548 12 331 1.6 6.4 0.00 0.00 0.00 98 1018.1
20260905112045 12 0 0.0 3.2 0.00 0.00 0.00 98 1018.1
20260905111542 11 295 0.0 1.6 0.00 0.00 0.00 98 1018.0
20260905111014 11 244 0.0 3.2 0.00 0.00 0.00 98 1017.9
20260905110512 11 287 0.0 3.2 0.00 0.00 0.00 98 1017.9
20260905110007 11 264 0.0 1.6 0.00 0.00 0.00 98 1017.8
20260905105503 11 231 0.0 1.6 0.00 0.00 0.00 98 1017.6
20260905105230 11 231 0.0 3.2 0.00 0.00 0.00 98 1017.5
20260905104451 11 240 0.0 3.2 0.00 0.00 0.00 98 1017.6
20260905103949 11 303 0.0 3.2 0.00 0.00 0.00 98 1017.5
20260905103438 11 303 0.0 3.2 0.00 0.00 0.00 98 1017.3
20260905102936 11 303 0.0 3.2 0.00 0.00 0.00 98 1017.4
20260905102437 11 303 0.0 3.2 0.00 0.00 0.00 98 1017.4
20260905101939 11 299 0.0 3.2 0.00 0.00 0.00 98 1017.3
20260905101409 11 299 0.0 3.2 0.00 0.00 0.00 98 1017.3
20260905100907 11 343 0.0 1.6 0.00 0.00 0.00 98 1017.3
20260905100402 10 120 0.0 0.0 0.00 0.00 0.00 98 1017.3
20260905095859 10 120 0.0 0.0 0.00 0.00 0.00 98 1017.2
20260905095354 10 120 0.0 0.0 0.00 0.00 0.00 98 1016.9
20260905094852 10 120 0.0 0.0 0.00 0.00 0.00 98 1017.0
20260905094559 10 120 0.0 0.0 0.00 0.00 0.00 98 1017.0
20260905093801 10 120 0.0 0.0 0.00 0.00 0.00 98 1017.0
20260905093509 10 120 0.0 0.0 0.00 0.00 0.00 98 1016.9
20260905092739 10 120 0.0 0.0 0.00 0.00 0.00 98 1016.7
20260905092210 10 120 0.0 0.0 0.00 0.00 0.00 98 1016.7
20260905091645 10 120 0.0 1.6 0.00 0.00 0.00 98 1016.8
20260905091142 10 120 0.0 1.6 0.00 0.00 0.00 98 1016.6
20260905090901 10 120 0.0 1.6 0.00 0.00 0.00 98 1016.6
20260905090130 10 120 0.0 1.6 0.00 0.00 0.00 98 1016.5
20260905085623 10 177 0.0 1.6 0.00 0.00 0.00 98 1016.5
20260905085119 10 177 0.0 1.6 0.00 0.00 0.00 98 1016.4
20260905084620 10 182 0.0 1.6 0.00 0.00 0.00 98 1016.4
20260905084057 10 182 0.0 1.6 0.00 0.00 0.00 98 1016.3
20260905083554 10 182 0.0 1.6 0.00 0.00 0.00 98 1016.4
20260905083318 10 255 0.0 0.0 0.00 0.00 0.00 98 1016.3
20260905082523 10 255 0.0 0.0 0.00 0.00 0.00 98 1016.2
20260905082020 10 255 0.0 0.0 0.00 0.00 0.00 98 1016.3
20260905081516 10 255 0.0 0.0 0.00 0.00 0.00 98 1016.1
20260905081508 10 255 0.0 0.0 0.00 0.00 0.00 98 1016.1
20260905080736 9 255 0.0 0.0 0.00 0.00 0.00 97 1016.2
20260905080618 9 255 0.0 0.0 0.00 0.00 0.00 97 1016.2
20260905075440 9 255 0.0 0.0 0.00 0.00 0.00 97 1016.2
20260905074915 9 255 0.0 0.0 0.00 0.00 0.00 98 1016.1
20260905074412 9 255 0.0 0.0 0.00 0.00 0.00 97 1016.1
20260905073845 9 255 0.0 1.6 0.00 0.00 0.00 97 1016.0
20260905073343 9 255 0.0 1.6 0.00 0.00 0.00 97 1015.9
20260905072820 8 255 0.0 0.0 0.00 0.00 0.00 97 1016.0
20260905072248 8 255 0.0 0.0 0.00 0.00 0.00 97 1016.0
20260905071747 8 255 0.0 0.0 0.00 0.00 0.00 97 1016.0
20260905071224 8 255 0.0 0.0 0.00 0.00 0.00 97 1016.0
20260905070716 8 255 0.0 0.0 0.00 0.00 0.00 97 1016.0
20260905070218 8 255 0.0 1.6 0.00 0.00 0.00 97 1015.9
20260905065713 8 255 0.0 1.6 0.00 0.00 0.00 97 1016.0
20260905065212 8 255 0.0 0.0 0.00 0.00 0.00 97 1015.9
20260905064708 8 255 0.0 0.0 0.00 0.00 0.00 97 1015.9
20260905064206 8 255 0.0 0.0 0.00 0.00 0.00 97 1015.9
20260905063658 8 255 0.0 0.0 0.00 0.00 0.00 97 1015.8
20260905063200 8 255 0.0 0.0 0.00 0.00 0.00 97 1015.8
20260905062905 8 255 0.0 0.0 0.00 0.00 0.00 97 1015.7
20260905062112 8 255 0.0 0.0 0.00 0.00 0.00 97 1015.8
20260905061839 8 255 0.0 0.0 0.00 0.00 0.00 97 1015.9
20260905061041 8 255 0.0 0.0 0.00 0.00 0.00 97 1016.0
20260905060540 8 255 0.0 1.6 0.00 0.00 0.00 97 1016.1
20260905060010 8 255 0.0 1.6 0.00 0.00 0.00 96 1016.1
20260905055736 8 255 0.0 1.6 0.00 0.00 0.00 96 1016.0
20260905055209 8 255 0.0 1.6 0.00 0.00 0.00 96 1016.2
20260905054438 8 255 0.0 0.0 0.00 0.00 0.00 96 1016.2
20260905053936 8 255 0.0 0.0 0.00 0.00 0.00 96 1016.2
20260905053434 8 255 0.0 0.0 0.00 0.00 0.00 96 1015.9
20260905053203 8 255 0.0 1.6 0.00 0.00 0.00 96 1016.0
20260905052431 8 255 0.0 1.6 0.00 0.00 0.00 96 1015.9
20260905051932 8 255 0.0 1.6 0.00 0.00 0.00 96 1016.0
20260905051403 8 255 0.0 0.0 0.00 0.00 0.00 96 1015.9
20260905050852 8 255 0.0 0.0 0.00 0.00 0.00 96 1015.9
20260905050351 9 255 0.0 0.0 0.00 0.00 0.00 96 1016.0
20260905045826 9 255 0.0 0.0 0.00 0.00 0.00 96 1016.0
20260905045528 8 255 0.0 0.0 0.00 0.00 0.00 96 1016.0
20260905044726 8 255 0.0 0.0 0.00 0.00 0.00 96 1016.0
20260905044200 8 255 0.0 0.0 0.00 0.00 0.00 96 1016.2
20260905043657 8 255 0.0 0.0 0.00 0.00 0.00 95 1016.1
20260905043150 8 255 0.0 0.0 0.00 0.00 0.00 95 1016.1
20260905042644 8 255 0.0 0.0 0.00 0.00 0.00 95 1016.1
20260905042635 8 255 0.0 0.0 0.00 0.00 0.00 96 1016.2
20260905041905 9 255 0.0 0.0 0.00 0.00 0.00 95 1016.2
20260905041612 9 255 0.0 0.0 0.00 0.00 0.00 95 1016.1
20260905040546 8 255 0.0 0.0 0.00 0.00 0.00 95 1016.1
20260905040013 8 255 0.0 1.6 0.00 0.00 0.00 94 1015.9
20260905035739 9 255 0.0 1.6 0.00 0.00 0.00 95 1016.0
20260905034942 9 255 0.0 0.0 0.00 0.00 0.00 94 1016.1
20260905034415 9 255 0.0 0.0 0.00 0.00 0.00 94 1016.2
20260905033904 9 255 0.0 0.0 0.00 0.00 0.00 94 1016.1
20260905033402 9 255 0.0 0.0 0.00 0.00 0.00 94 1016.0
20260905032858 9 255 0.0 0.0 0.00 0.00 0.00 94 1015.9
20260905032345 9 255 0.0 0.0 0.00 0.00 0.00 94 1016.0
20260905031830 10 257 0.0 0.0 0.00 0.00 0.00 94 1016.1
20260905031330 10 258 0.0 0.0 0.00 0.00 0.00 94 1016.2
20260905031102 10 257 0.0 0.0 0.00 0.00 0.00 95 1016.1
20260905030331 10 258 0.0 0.0 0.00 0.00 0.00 95 1016.1
20260905025822 10 258 1.6 3.2 0.00 0.00 0.00 95 1016.2
20260905025552 10 258 1.6 3.2 0.00 0.00 0.00 95 1016.2